カタログに戻る

STARLINK-34739

運用中通信SSO
NORAD 65066·PAYLOAD·🇺🇸 United States

打ち上げ Jul 31, 2025 から Vandenberg Space Force Base

Loading…

次のパス (今後24時間)

TLE

最新Source: CelesTrak SupGP

元期: Sep 15, 2026, 03:35 UTC

1 65066C 25165L   26258.14979167  .00063806  00000+0  38782-2 0  2589
2 65066  97.2848 329.4503 0001586  84.0451 343.6904 15.10525376    16

AllMySatでSTARLINK-34739をリアルタイム追跡

Download on the App Store